Regional Weather Roundup
Issued by NWS

Home | Current Version | Previous Version | Text Only | Print | Product List | Glossary Off
Versions: 1 2 3 4 5 6 7 8 9 10 11 12 13 14 15 16 17 18 19 20 21 22 23 24 25 26 27 28 29 30 31 32 33 34 35 36 37 38 39 40 41 42 43 44 45 46 47 48 49 50

000
ASUS43 KLMK 170810
RWRKY
KENTUCKY REGIONAL WEATHER ROUNDUP
NATIONAL WEATHER SERVICE LOUISVILLE KY
300 AM EST SUN DEC 17 2017

NOTE "FAIR" INDICATES FEW OR NO CLOUDS BELOW 12,000 FEET
WITH NO SIGNIFICANT WEATHER AND/OR OBSTRUCTIONS TO VISIBILITY.

KYZ001>023-026-027-061>063-070>075-170900-
WESTERN AND SOUTH CENTRAL KENTUCKY

CITY           SKY/WX    TMP DP  RH WIND       PRES   REMARKS
PADUCAH        CLOUDY    43  30  60 SE6       30.14S
HENDERSON      CLOUDY    40  32  73 S5        30.18R
OWENSBORO      MOCLDY    40  31  70 S6        30.18S
HOPKINSVILLE   CLOUDY    42  30  62 E6        30.16F
BOWLING GREEN  MOCLDY    42  31  64 S3        30.21F
GLASGOW        CLOUDY    40  30  65 CALM      30.21S
$$

KYZ024-025-028>034-038-045-046-053-170900-
NORTH CENTRAL KENTUCKY

CITY           SKY/WX    TMP DP  RH WIND       PRES   REMARKS
LOUISVILLE/SDF CLOUDY    40  30  67 S6        30.19R
LOUISVILLE/LOU CLOUDY    39  31  72 S8        30.20S WCI  33
FORT KNOX      MOCLDY    37  29  73 S5        30.18R WCI  34
$$

KYZ035>037-039>044-047>052-055>060-089>105-170900-
NORTHEAST KENTUCKY

CITY           SKY/WX    TMP DP  RH WIND       PRES   REMARKS
LEXINGTON      PTCLDY    38  29  70 S8        30.20S WCI  32
COVINGTON      CLOUDY    38  30  73 S9        30.16S WCI  31
FRANKFORT      CLOUDY    38  28  67 S8        30.18F WCI  32
$$

KYZ054-064>069-076>088-106>120-170900-
SOUTHEAST KENTUCKY

CITY           SKY/WX    TMP DP  RH WIND       PRES   REMARKS
JACKSON        CLOUDY    38  27  64 SW3       30.23R
LONDON         CLOUDY    31  26  82 CALM      30.23R
SOMERSET       PTCLDY    36  28  75 S5        30.25F WCI  32
MIDDLESBORO    MOCLDY    29  27  92 CALM      30.28R
MONTICELLO     CLOUDY    31  28  89 CALM      30.24F
$$




USA.gov is the U.S. government's official web portal to all federal, state and local government web resources and services.